Weather History for Carbondale, IL

Change the Weather History Date:

Friday, July 5, 2013

  Actual Average Record
Temperature  
Mean Temperature 71 °F -  
Max Temperature 80 °F 87 °F 107 °F (2012)
Min Temperature 62 °F 65 °F 32 °F (1996)
Cooling Degree Days 6    
Growing Degree Days 21 (Base 50)    
Moisture  
Dew Point 64 °F    
Average Humidity 91    
Maximum Humidity 100    
Minimum Humidity 58    
Precipitation  
Precipitation 0.00 in - - ()
Sea Level Pressure  
Sea Level Pressure 30.07 in    
Wind  
Wind Speed 1 mph (ESE)    
Max Wind Speed 10 mph    
Max Gust Speed -    
Visibility 5 miles    
Events Fog    
Averages and records for this station are not official NWS values.
T = Trace of Precipitation, MM = Missing Value Source: NWS Daily Summary

Daily Weather History Graph

Daily Weather History Graph

Search for Another Location

Airport:

Trip Planner

Search our weather history database for the weather conditions in past years. The results will help you decide how hot, cold, wet, or windy it might be!

Date:

Astronomy

Jul. 05, 2013 Rise Set
Actual Time 5:40 AM CDT 8:22 PM CDT
Civil Twilight 5:09 AM CDT 8:53 PM CDT
Nautical Twilight 4:31 AM CDT 9:31 PM CDT
Astronomical Twilight 3:47 AM CDT 10:15 PM CDT
Moon 3:39 AM CDT (7/5) 6:18 PM CDT (7/5)
Length of Visible Light 15h 43m
Length of Day
14h 41m
Waning Crescent, 6% of the Moon is Illuminated
Jul 5
Waning Crescent
Jul 8
New
Jul 15
First Quarter
Jul 22
Full
Jul 29
Last Quarter

Hourly Weather History & Observations

Time (CDT) Temp. Heat Index Dew Point Humidity Pressure Visibility Wind Dir Wind Speed Gust Speed Precip Events Conditions
12:52 AM 66.9 °F - 64.9 °F 93% 30.04 in 8.0 mi Calm Calm - N/A   Clear
1:38 AM 66.2 °F - 64.4 °F 94% 30.05 in 1.8 mi Calm Calm - N/A   Clear
1:48 AM 64.4 °F - 64.4 °F 100% 30.05 in 4.0 mi Calm Calm - N/A   Clear
1:52 AM 64.9 °F - 64.0 °F 97% 30.04 in 7.0 mi Calm Calm - N/A   Clear
2:52 AM 64.9 °F - 64.0 °F 97% 30.04 in 8.0 mi Calm Calm - N/A   Clear
3:11 AM 64.4 °F - 64.4 °F 100% 30.05 in 1.8 mi Calm Calm - N/A   Clear
3:34 AM 64.4 °F - 62.6 °F 94% 30.04 in 0.5 mi Calm Calm - N/A Fog Fog
3:41 AM 62.6 °F - 62.6 °F 100% 30.04 in 2.5 mi Calm Calm - N/A   Clear
3:48 AM 64.4 °F - 62.6 °F 94% 30.04 in 5.0 mi ESE 4.6 mph - N/A   Clear
3:52 AM 64.0 °F - 63.0 °F 96% 30.03 in 6.0 mi ESE 4.6 mph - N/A   Clear
4:46 AM 62.6 °F - 62.6 °F 100% 30.06 in 1.8 mi Calm Calm - N/A   Clear
4:52 AM 62.1 °F - 61.0 °F 96% 30.05 in 0.8 mi Calm Calm - N/A   Clear
5:09 AM 62.6 °F - 62.6 °F 100% 30.06 in 0.5 mi Calm Calm - N/A Fog Fog
5:31 AM 62.6 °F - 62.6 °F 100% 30.06 in 1.2 mi Calm Calm - N/A   Mostly Cloudy
5:42 AM 62.6 °F - 62.6 °F 100% 30.06 in 3.0 mi Calm Calm - N/A   Mostly Cloudy
5:52 AM 63.0 °F - 62.1 °F 97% 30.06 in 4.0 mi Calm Calm - N/A   Mostly Cloudy
5:58 AM 62.6 °F - 62.6 °F 100% 30.07 in 1.2 mi Calm Calm - N/A   Scattered Clouds
6:05 AM 62.6 °F - 62.6 °F 100% 30.07 in 0.5 mi Calm Calm - N/A Fog Fog
6:10 AM 62.6 °F - 62.6 °F 100% 30.08 in 2.0 mi Calm Calm - N/A   Mostly Cloudy
6:15 AM 62.6 °F - 62.6 °F 100% 30.07 in 3.0 mi Calm Calm - N/A   Mostly Cloudy
6:20 AM 62.6 °F - 62.6 °F 100% 30.07 in 1.5 mi Calm Calm - N/A   Mostly Cloudy
6:27 AM 62.6 °F - 62.6 °F 100% 30.07 in 0.2 mi Calm Calm - N/A Fog Fog
6:38 AM 64.4 °F - 62.6 °F 94% 30.07 in 0.2 mi Calm Calm - N/A Fog Fog
6:52 AM 64.0 °F - 64.0 °F 100% 30.06 in 0.2 mi Calm Calm - N/A Fog Fog
7:39 AM 66.2 °F - 66.2 °F 100% 30.09 in 0.5 mi Calm Calm - N/A Fog Fog
7:49 AM 66.2 °F - 66.2 °F 100% 30.09 in 2.0 mi Calm Calm - N/A   Overcast
7:52 AM 66.9 °F - 66.0 °F 97% 30.08 in 3.0 mi Calm Calm - N/A   Overcast
8:52 AM 69.1 °F - 66.9 °F 93% 30.10 in 6.0 mi East 3.5 mph - N/A   Mostly Cloudy
8:59 AM 69.8 °F - 66.2 °F 88% 30.10 in 7.0 mi Calm Calm - N/A   Mostly Cloudy
9:13 AM 73.4 °F - 66.2 °F 78% 30.10 in 7.0 mi Calm Calm - N/A   Mostly Cloudy
9:46 AM 75.2 °F - 66.2 °F 73% 30.10 in 10.0 mi Calm Calm - N/A   Overcast
9:52 AM 75.0 °F - 66.0 °F 73% 30.09 in 10.0 mi East 3.5 mph - N/A   Overcast
10:52 AM 75.9 °F - 66.9 °F 74% 30.09 in 10.0 mi Variable 5.8 mph - N/A   Mostly Cloudy
11:52 AM 77.0 °F - 66.0 °F 69% 30.09 in 10.0 mi Variable 4.6 mph - N/A   Mostly Cloudy
12:52 PM 77.0 °F - 66.9 °F 71% 30.09 in 10.0 mi Calm Calm - N/A   Mostly Cloudy
1:52 PM 78.1 °F - 66.9 °F 68% 30.08 in 10.0 mi East 10.4 mph - N/A   Mostly Cloudy
2:52 PM 80.1 °F 82.1 °F 66.0 °F 62% 30.07 in 10.0 mi ESE 8.1 mph - N/A   Mostly Cloudy
3:15 PM 80.6 °F 82.3 °F 64.4 °F 58% 30.07 in 10.0 mi Variable 6.9 mph - N/A   Scattered Clouds
10:52 PM 70.0 °F - 66.9 °F 90% 30.05 in 10.0 mi Calm Calm - N/A   Clear
11:52 PM 71.1 °F - 68.0 °F 90% 30.04 in 10.0 mi Calm Calm - N/A   Clear